Погода в Котласе

Погода в Котласе : погода сейчас, прогноз погоды и архив. Всё, что Вы хотите узнать о погоде в Котласе!

Поиск расширенной информации на нашем сайте:

Другие новости

Новости СМИ2

Главная страница сайта

Новости сайта

03.07.2017

Напоминаем, что на нашем специализированном сайте Метеоцентр.Азия вы можете получить высокодетализированные автоматические прогнозы погоды по пунктам России, СНГ и мира в авиационном формате (включающие направление и скорость ветра, видимость, явления погоды, количество и форму облачности, нижнюю и верхнюю границу облачности).


Погода в Котласе - сегодня

Время (UTC), дата Ветер
(°,м/с) 
Видим.   Явления Облачность Т
(°С)
Тd
(°С)
f(%) Тe
(°С)
Pmin
(гПа)
dP
(гПа)
Po
(мм)
O2
(г/м3)
Тmin Tmax R s Состояние
почвы
09 18.04.18 150 (ЮВ) 20000 м    1/0 верхняя 
[Ci fib]
+10.4 -4.1 36 +12  1017.6  -1.3  758  295           
12 18.04.18 190 (Ю) 20000 м    ясно 
+11.8 -3.8 33 +12  1016.1  -1.4  757  293           
18 18.04.18 160 (Ю) 10 км    ясно 
+1.4 -4.9 63 +2  1013.7  -0.7  755  303           
21 18.04.18 160 (Ю) 10 км    4/0 верхняя 
[Ci fib]
-1.8 -4.2 84 -1  1012.3  -1.4  754  306           
00 19.04.18 тихо ()   10 км    3/0 верхняя 
[Ci fib]
-3.4 -4.5 92 -3  1011.5  -0.9  753  308           
06 19.04.18 300 (СЗ) 20000 м    1/0 верхняя 
[Ci fib]
+4.8 -2.9 57 +4  1009.7  -0.5  752  298           
09 19.04.18 350 (С) 20000 м    8/0 средняя, верхняя 
[Ac trans|Ci fib]
+8.6 -1.7 48 +8  1009.6  752  294           
12 19.04.18 330 (СЗ) 20000 м    8/0 средняя, верхняя 
[Ac trans|Ci fib]
+9.7 -0.9 48 +8  1009  -0.6  752  293           
18 19.04.18 340 (С) 10 км    10/4 1000 м средняя 
[Sc|Ac und]
+4.8 -1.5 64 +3  1010.3  0.8  753  298           
21 19.04.18 340 (С) 10 км    10/3 600 м средняя 
[Sc|Ac und]
+1.6 -5.4 60 -1  1012.4  1.9  754  303           
00 20.04.18 310 (СЗ) 10 км    4/0 верхняя 
[Ci fib]
-1.2 -6.3 68 -4  1013.4  755  306           
03 20.04.18 340 (С) 20000 м  в посл. час ливневой снег  10/8 800 м кучево-дожд., средняя 
[Cb cap|Ac und]
-2.2 -7.3 68 -5  1013.9  0.5  755  308  -2.2    0.0  13  мокрый или
старый снег
50-90% 
09 20.04.18 300 (СЗ) 20000 м  {ливн. осадки}  9/4 600 м средняя 
[Sc|Ac trans]
+0.1 -7.9 55 -3  1015  756  305           
12 20.04.18 300 (СЗ) 20000 м  {ливн. осадки}  10/5 1000 м средняя 
[Sc|Ac und]
+0.6 -8.1 52 -2  1014.6  -0.4  756  305           
18 20.04.18 тихо ()   10 км    10/3 1000 м средняя, верхняя 
[Sc|Ac trans|Ci fib]
-2.2 -8.5 62 -2  1013.2  -1.1  755  307           
21 20.04.18 тихо ()   10 км    3/0 верхняя 
[Ci fib]
-6.3 -8.6 84 -6  1012.2  -1.1  754  312           
00 21.04.18 140 (ЮВ) 10 км    4/0 верхняя 
[Ci fib]
-8 -9.8 87 -8  1010.8  -1.5  753  313           
03 21.04.18 150 (ЮВ) 20000 м    10/0 средняя, верхняя 
[Ac trans|Ci fib]
-5.4 -8.3 80 -8  1009.4  -1.3  752  310  -8.1      мокрый или
старый снег
10-40% 
06 21.04.18 140 (ЮВ) 20000 м    10/0 средняя, верхняя 
[Ac trans|Ci fib]
-0.3 -8.9 52 -3  1006.9  -2.3  750  303           
09 21.04.18 140 (ЮВ) 20000 м    10/0 средняя 
[Ac und]
+0.8 -8.7 49 -2  1003.9  -3  748  301           
12 21.04.18 140 (ЮВ) 20000 м    10/0 средняя 
[Ac und]
+1.2 -8.5 48 -2  1001.6  -2.3  746  300           
18 21.04.18 050 (СВ) 10 км    10/4 1000 м средняя 
[Sc|Ac und]
+0.4 -7.9 54 998.1  -1.6  743  300           
21 21.04.18 040 (СВ) 10 км    8/3 1000 м средняя, верхняя 
[Sc|Ac trans|Ci fib]
-0.8 -8.7 55 -3  997.1  -1  743  301           
00 22.04.18 050 (СВ) 10 км    10/3 1000 м средняя 
[Sc|Ac und]
-2.2 -8.9 60 -4  996.5  -0.5  742  302           
03 22.04.18 040 (СВ) 20000 м    10/3 1000 м средняя, верхняя 
[Sc|Ac trans|Ci fib]
-2.8 -9.4 60 -6  996.7  0.3  742  303  -3      мокрый или
старый снег
10-40% 
Время (UTC), дата Ветер
(°,м/с) 
Видим.   Явления Облачность Т
(°С)
Тd
(°С)
f(%) Тe
(°С)
Pmin
(гПа)
dP
(гПа)
Po
(мм)
O2
(г/м3)
Тmin Tmax R s Состояние
почвы

Для получения пояснительной информации подведите курсор к названию столбца.

ПОГОДА в Котласе - архив

Всё, что Вы хотите узнать о погоде в Котласе - удобно и подробно!

Выберите нужную дату (начиная с 1 января 2015* года) и нажмите кнопку "Найти".
Будут отображены архивные сводки погоды по пункту Котлас, начиная с указанной даты.


Отображать данные в формате CSV (для использования в таблицах Excel)


Внимание! Наш архив погоды предназначен исключительно для личного некоммерческого использования в познавательных целях. Если Вам необходимы официальные справки о состоянии погоды (для производственных, юридических, коммерческих и т.п. целей), обращайтесь в органы Росгидромета.

*Примечание: данная дата относится к архиву по метеостанциям СССР (Россия, СНГ, Балтия).
Архив по метеостанциям Зарубежной Европы и Азии (кроме Китая) хранится 10 дней, по другим регионам земного шара (Китай, Африка, Америка, Австралия, Океания) - 1 день.

Котлас - район местоположения метеостанции


Название, широта, долгота, высота метеостанции:
Котлас 61.2°ш. 46.7°д. 56 м над ур. моря [Российская Федерация]

Дополнительная информация

В oтличие oт бoльшинства пoгoдных сайтoв мы публикуем пoдрoбную метеoинфoрмацию в детальнoм прoфессиoнальнoм фoрмате.

Характеристики температуры и влажнoсти вoздуха измеряются на высoте 2 м в тени вдали oт зданий и деревьев.
Скoрoсть ветра измеряется на высoте 10 м (на урoвне рoста челoвека скoрoсть ветра ниже в 1.5-2 раза). Если метеoстанция нахoдится в гoрoде или в лесу, тo скoрoсть ветра занижена на 2-4 м/с пo сравнению с oткрытым местoм. Скoрoсть ветра над акватoриями крупных рек и oзёр, а также на вершинах хoлмoв на 2-5 м/с выше, чем в oбычных услoвиях.
Атмoсфернoе давление в разных тoчках местнoсти мoжет значительнo oтличаться oт давления на метеoстанции, в зависимoсти oт услoвий рельефа (при пoдъёме на 10 м давление пoнижается примернo на 1 мм рт.ст.).